This is the latest recevied weather packets stored in our database for station/object KC1TEM-13. If no packets are shown the sender has not sent any weather packets the latest 10 day(s).
| Time | Temp. | Humidity | Pressure | Rain* | Wind** | Luminosity | Snow |
|---|---|---|---|---|---|---|---|
| 1787833706 | 18.89° C | 98% | 1018.8 hPa | 0 mm | - | 67 W/m² | - |
| 1787833402 | 18.89° C | 98% | 1018.7 hPa | 0 mm | - | 63 W/m² | - |
| 1787833097 | 18.33° C | 99% | 1019 hPa | 0 mm | - | 61 W/m² | - |
| 1787832793 | 18.33° C | 99% | 1018.8 hPa | 0 mm | - | 59 W/m² | - |
| 1787832488 | 17.78° C | 98% | 1018.6 hPa | 0 mm | - | 50 W/m² | - |
| 1787832187 | 17.78° C | 98% | 1018.8 hPa | 0 mm | - | 45 W/m² | - |
| 1787831885 | 17.22° C | 98% | 1018.8 hPa | 0 mm | - | 41 W/m² | - |
| 1787831581 | 16.67° C | 98% | 1018.8 hPa | 0 mm | - | 37 W/m² | - |
| 1787831279 | 16.67° C | 98% | 1018.7 hPa | 0 mm | - | 38 W/m² | - |
| 1787830976 | 16.67° C | 98% | 1019 hPa | 0 mm | - | 35 W/m² | - |
| 1787830670 | 16.11° C | 98% | 1019.1 hPa | 0 mm | - | 38 W/m² | - |
| 1787830369 | 16.11° C | 98% | 1018.9 hPa | 0 mm | - | 34 W/m² | - |
| 1787830069 | 16.11° C | 98% | 1018.7 hPa | 0 mm | - | 32 W/m² | - |
| 1787829769 | 16.11° C | 98% | 1018.8 hPa | 0 mm | - | 25 W/m² | - |
| 1787829469 | 16.11° C | 98% | 1018.8 hPa | 0 mm | - | 24 W/m² | - |
| 1787829165 | 16.11° C | 98% | 1018.8 hPa | 0 mm | - | 24 W/m² | - |
| 1787828860 | 16.11° C | 98% | 1018.8 hPa | 0 mm | - | 22 W/m² | - |
| 1787828564 | 16.11° C | 98% | 1018.8 hPa | 0 mm | - | 21 W/m² | - |
| 1787828257 | 16.11° C | 98% | 1018.7 hPa | 0 mm | - | 19 W/m² | - |
| 1787827956 | 16.11° C | 98% | 1018.7 hPa | 0 mm | - | 18 W/m² | - |
| 1787827656 | 16.11° C | 98% | 1018.7 hPa | 0 mm | - | 17 W/m² | - |
| 1787827351 | 16.11° C | 98% | 1018.6 hPa | 0 mm | - | 18 W/m² | - |
| 1787827051 | 15.56° C | 98% | 1018.5 hPa | 0 mm | - | 21 W/m² | - |
| 1787826750 | 15.56° C | 98% | 1018.5 hPa | 0 mm | - | 21 W/m² | - |
| 1787826445 | 15.56° C | 98% | 1018.5 hPa | 0 mm | - | 16 W/m² | - |
* Rain latest hour (hover to see other rain measurements)
** Current wind speed in m/s (hover to see current wind gust speed)